| time (UTC) | temp C | wind direction | speed KPH | gust KPH | rain 1hr cm | rain 24hr cm | rain mn cm | humidity % | barometer mb |
| 20260506032026 | 7 | 86 | 0.0 | 0.0 | 0.00 | 0.03 | 0.00 | 75 | 1015.6 |
| 20260506031527 | 7 | 86 | 0.0 | 0.0 | 0.00 | 0.03 | 0.00 | 75 | 1015.7 |
| 20260506031027 | 7 | 86 | 0.0 | 0.0 | 0.00 | 0.03 | 0.00 | 75 | 1015.7 |
| 20260506030525 | 7 | 86 | 0.0 | 0.0 | 0.00 | 0.03 | 0.00 | 76 | 1015.7 |
| 20260506030026 | 7 | 86 | 0.0 | 1.6 | 0.00 | 0.03 | 0.00 | 76 | 1015.7 |
| 20260506025524 | 7 | 86 | 0.0 | 3.2 | 0.00 | 0.03 | 0.00 | 76 | 1015.7 |
| 20260506025024 | 7 | 86 | 0.0 | 1.6 | 0.00 | 0.03 | 0.00 | 75 | 1015.8 |
| 20260506024524 | 7 | 84 | 0.0 | 3.2 | 0.00 | 0.03 | 0.00 | 75 | 1015.7 |
| 20260506024024 | 7 | 84 | 0.0 | 3.2 | 0.00 | 0.03 | 0.00 | 74 | 1015.6 |
| 20260506023524 | 7 | 88 | 0.0 | 0.0 | 0.00 | 0.03 | 0.00 | 73 | 1015.6 |
| 20260506023023 | 7 | 88 | 0.0 | 0.0 | 0.00 | 0.03 | 0.00 | 73 | 1015.5 |
| 20260506022523 | 7 | 88 | 0.0 | 0.0 | 0.00 | 0.03 | 0.00 | 72 | 1015.5 |
| 20260506022023 | 7 | 88 | 0.0 | 0.0 | 0.00 | 0.03 | 0.00 | 74 | 1015.4 |
| 20260506021522 | 7 | 88 | 0.0 | 0.0 | 0.00 | 0.03 | 0.00 | 74 | 1015.4 |
| 20260506021021 | 7 | 88 | 0.0 | 0.0 | 0.00 | 0.03 | 0.00 | 73 | 1015.4 |
| 20260506020521 | 7 | 88 | 0.0 | 0.0 | 0.00 | 0.03 | 0.00 | 73 | 1015.4 |
| 20260506020024 | 7 | 88 | 0.0 | 0.0 | 0.00 | 0.03 | 0.00 | 75 | 1015.3 |
| 20260506015521 | 7 | 88 | 0.0 | 0.0 | 0.00 | 0.03 | 0.00 | 74 | 1015.4 |
| 20260506015022 | 7 | 88 | 0.0 | 0.0 | 0.00 | 0.03 | 0.00 | 74 | 1015.4 |
| 20260506014522 | 7 | 88 | 0.0 | 0.0 | 0.00 | 0.03 | 0.00 | 74 | 1015.5 |
| 20260506014019 | 7 | 88 | 0.0 | 0.0 | 0.00 | 0.03 | 0.00 | 73 | 1015.5 |
| 20260506013519 | 7 | 88 | 0.0 | 0.0 | 0.00 | 0.03 | 0.00 | 73 | 1015.5 |
| 20260506013026 | 7 | 88 | 0.0 | 0.0 | 0.00 | 0.03 | 0.00 | 73 | 1015.5 |
| 20260506012517 | 7 | 88 | 0.0 | 3.2 | 0.00 | 0.03 | 0.00 | 72 | 1015.6 |
| 20260506012017 | 7 | 88 | 0.0 | 3.2 | 0.00 | 0.03 | 0.00 | 72 | 1015.7 |
| 20260506011517 | 7 | 88 | 0.0 | 4.8 | 0.00 | 0.03 | 0.00 | 72 | 1015.7 |
| 20260506011015 | 7 | 90 | 0.0 | 3.2 | 0.00 | 0.03 | 0.00 | 72 | 1015.7 |
| 20260506010515 | 7 | 84 | 0.0 | 4.8 | 0.00 | 0.03 | 0.00 | 71 | 1015.6 |
| 20260506010023 | 7 | 83 | 0.0 | 4.8 | 0.00 | 0.03 | 0.00 | 72 | 1015.7 |
| 20260506005514 | 7 | 81 | 1.6 | 4.8 | 0.00 | 0.03 | 0.00 | 71 | 1015.7 |
| 20260506005017 | 7 | 75 | 1.6 | 4.8 | 0.00 | 0.03 | 0.00 | 71 | 1015.7 |
| 20260506004518 | 7 | 78 | 1.6 | 4.8 | 0.00 | 0.03 | 0.00 | 72 | 1015.7 |
| 20260506004013 | 7 | 75 | 0.0 | 3.2 | 0.00 | 0.03 | 0.00 | 73 | 1015.8 |
| 20260506003513 | 7 | 78 | 0.0 | 3.2 | 0.00 | 0.03 | 0.00 | 74 | 1015.8 |
| 20260506003013 | 7 | 79 | 0.0 | 3.2 | 0.00 | 0.03 | 0.00 | 73 | 1015.8 |
| 20260506002512 | 7 | 79 | 0.0 | 3.2 | 0.00 | 0.03 | 0.00 | 73 | 1015.7 |
| 20260506002013 | 7 | 78 | 0.0 | 4.8 | 0.00 | 0.03 | 0.00 | 73 | 1015.7 |
| 20260506001513 | 7 | 79 | 0.0 | 4.8 | 0.00 | 0.03 | 0.00 | 73 | 1015.8 |
| 20260506001011 | 7 | 78 | 0.0 | 4.8 | 0.00 | 0.03 | 0.00 | 73 | 1015.7 |
| 20260506000510 | 7 | 78 | 0.0 | 4.8 | 0.00 | 0.03 | 0.00 | 73 | 1015.8 |
| 20260506000016 | 8 | 63 | 0.0 | 3.2 | 0.00 | 0.03 | 0.00 | 73 | 1015.7 |
| 20260505235514 | 8 | 85 | 0.0 | 4.8 | 0.00 | 0.03 | 0.00 | 73 | 1015.7 |
| 20260505235009 | 8 | 82 | 0.0 | 3.2 | 0.00 | 0.03 | 0.00 | 73 | 1015.7 |
| 20260505234514 | 8 | 79 | 0.0 | 3.2 | 0.00 | 0.03 | 0.00 | 73 | 1015.8 |
| 20260505234009 | 8 | 79 | 0.0 | 3.2 | 0.00 | 0.03 | 0.00 | 73 | 1015.8 |
| 20260505233513 | 8 | 79 | 0.0 | 4.8 | 0.00 | 0.03 | 0.00 | 72 | 1015.8 |
| 20260505233007 | 8 | 79 | 1.6 | 6.4 | 0.00 | 0.03 | 0.00 | 72 | 1015.7 |
| 20260505232506 | 8 | 76 | 0.0 | 6.4 | 0.00 | 0.03 | 0.00 | 72 | 1015.7 |
| 20260505232006 | 8 | 78 | 0.0 | 4.8 | 0.00 | 0.03 | 0.00 | 72 | 1015.7 |
| 20260505231505 | 8 | 76 | 0.0 | 4.8 | 0.00 | 0.03 | 0.00 | 72 | 1015.8 |
| 20260505231004 | 8 | 82 | 1.6 | 4.8 | 0.00 | 0.03 | 0.00 | 71 | 1015.8 |
| 20260505230504 | 8 | 71 | 0.0 | 4.8 | 0.00 | 0.03 | 0.00 | 71 | 1015.7 |
| 20260505230003 | 8 | 84 | 0.0 | 6.4 | 0.00 | 0.03 | 0.00 | 71 | 1015.8 |
| 20260505225503 | 8 | 86 | 0.0 | 6.4 | 0.00 | 0.03 | 0.03 | 71 | 1015.8 |
| 20260505225004 | 8 | 76 | 0.0 | 12.9 | 0.00 | 0.03 | 0.03 | 71 | 1015.8 |
| 20260505224502 | 8 | 67 | 1.6 | 12.9 | 0.00 | 0.03 | 0.03 | 71 | 1015.7 |
| 20260505224002 | 8 | 83 | 1.6 | 12.9 | 0.00 | 0.03 | 0.03 | 71 | 1015.7 |
| 20260505223505 | 8 | 77 | 1.6 | 6.4 | 0.00 | 0.03 | 0.03 | 71 | 1015.8 |
| 20260505223004 | 8 | 76 | 0.0 | 4.8 | 0.00 | 0.03 | 0.03 | 71 | 1015.8 |
| 20260505222502 | 8 | 82 | 0.0 | 4.8 | 0.00 | 0.03 | 0.03 | 71 | 1015.7 |
| 20260505222002 | 8 | 79 | 1.6 | 6.4 | 0.00 | 0.03 | 0.03 | 72 | 1015.7 |
| 20260505221502 | 8 | 69 | 1.6 | 6.4 | 0.00 | 0.03 | 0.03 | 72 | 1015.8 |
| 20260505221001 | 8 | 75 | 1.6 | 6.4 | 0.00 | 0.03 | 0.03 | 73 | 1015.8 |
| 20260505220500 | 8 | 121 | 0.0 | 8.0 | 0.00 | 0.03 | 0.03 | 73 | 1015.8 |
| 20260505220003 | 8 | 86 | 1.6 | 8.0 | 0.00 | 0.03 | 0.03 | 73 | 1015.8 |
| 20260505215501 | 8 | 76 | 1.6 | 6.4 | 0.00 | 0.03 | 0.03 | 74 | 1015.7 |
| 20260505215100 | 8 | 75 | 0.0 | 6.4 | 0.00 | 0.03 | 0.03 | 74 | 1015.7 |
| 20260505214609 | 8 | 70 | 0.0 | 9.7 | 0.00 | 0.03 | 0.03 | 74 | 1015.7 |
| 20260505214101 | 8 | 98 | 1.6 | 9.7 | 0.00 | 0.03 | 0.03 | 74 | 1015.6 |
| 20260505213559 | 8 | 88 | 0.0 | 4.8 | 0.00 | 0.03 | 0.03 | 75 | 1015.6 |
| 20260505213102 | 9 | 90 | 0.0 | 9.7 | 0.00 | 0.03 | 0.03 | 74 | 1015.6 |
| 20260505212600 | 9 | 96 | 0.0 | 9.7 | 0.00 | 0.03 | 0.03 | 74 | 1015.5 |
| 20260505212100 | 9 | 74 | 0.0 | 12.9 | 0.00 | 0.03 | 0.03 | 74 | 1015.5 |
| 20260505211619 | 9 | 70 | 3.2 | 9.7 | 0.00 | 0.03 | 0.03 | 74 | 1015.5 |
| 20260505211059 | 9 | 66 | 1.6 | 6.4 | 0.00 | 0.03 | 0.03 | 75 | 1015.5 |
| 20260505210558 | 9 | 70 | 1.6 | 6.4 | 0.00 | 0.03 | 0.03 | 75 | 1015.5 |
| 20260505210108 | 9 | 84 | 1.6 | 9.7 | 0.00 | 0.03 | 0.03 | 75 | 1015.4 |
| 20260505205600 | 9 | 86 | 1.6 | 9.7 | 0.00 | 0.03 | 0.03 | 75 | 1015.4 |
| 20260505205059 | 9 | 81 | 0.0 | 6.4 | 0.00 | 0.03 | 0.03 | 75 | 1015.3 |
| 20260505204559 | 9 | 80 | 0.0 | 6.4 | 0.00 | 0.03 | 0.03 | 75 | 1015.3 |
| 20260505204058 | 9 | 81 | 1.6 | 6.4 | 0.00 | 0.03 | 0.03 | 76 | 1015.3 |
| 20260505203602 | 9 | 75 | 1.6 | 11.3 | 0.00 | 0.03 | 0.03 | 75 | 1015.2 |
| 20260505203058 | 10 | 92 | 3.2 | 12.9 | 0.00 | 0.03 | 0.03 | 75 | 1015.2 |
| 20260505202558 | 10 | 74 | 3.2 | 12.9 | 0.00 | 0.03 | 0.03 | 74 | 1015.2 |
| 20260505202058 | 10 | 101 | 3.2 | 12.9 | 0.00 | 0.03 | 0.03 | 74 | 1015.1 |
| 20260505201606 | 10 | 84 | 3.2 | 9.7 | 0.00 | 0.03 | 0.03 | 75 | 1015.1 |
| 20260505201057 | 10 | 94 | 1.6 | 16.1 | 0.00 | 0.03 | 0.03 | 75 | 1015.0 |
| 20260505200557 | 10 | 91 | 4.8 | 17.7 | 0.00 | 0.03 | 0.03 | 74 | 1015.0 |
| 20260505200057 | 10 | 94 | 4.8 | 17.7 | 0.00 | 0.03 | 0.03 | 74 | 1014.9 |
| 20260505195556 | 10 | 118 | 3.2 | 9.7 | 0.00 | 0.03 | 0.03 | 75 | 1014.8 |
| 20260505195056 | 10 | 84 | 0.0 | 4.8 | 0.00 | 0.03 | 0.03 | 75 | 1014.8 |
| 20260505194558 | 10 | 349 | 0.0 | 1.6 | 0.00 | 0.03 | 0.03 | 75 | 1014.7 |
| 20260505194058 | 10 | 309 | 0.0 | 6.4 | 0.00 | 0.03 | 0.03 | 74 | 1014.6 |
| 20260505193555 | 10 | 309 | 1.6 | 12.9 | 0.00 | 0.03 | 0.03 | 73 | 1014.5 |
| 20260505193056 | 10 | 309 | 4.8 | 12.9 | 0.00 | 0.03 | 0.03 | 73 | 1014.5 |
| 20260505192558 | 10 | 294 | 3.2 | 9.7 | 0.00 | 0.03 | 0.03 | 73 | 1014.4 |
| 20260505192055 | 10 | 310 | 1.6 | 6.4 | 0.00 | 0.03 | 0.03 | 73 | 1014.4 |
| 20260505191602 | 10 | 318 | 1.6 | 6.4 | 0.00 | 0.03 | 0.03 | 72 | 1014.5 |
| 20260505191055 | 10 | 310 | 0.0 | 6.4 | 0.00 | 0.03 | 0.03 | 73 | 1014.5 |
| 20260505190558 | 11 | 317 | 1.6 | 6.4 | 0.00 | 0.03 | 0.03 | 72 | 1014.5 |
| 20260505190112 | 11 | 311 | 0.0 | 8.0 | 0.00 | 0.03 | 0.03 | 72 | 1014.5 |
| 20260505185554 | 11 | 311 | 1.6 | 9.7 | 0.00 | 0.03 | 0.03 | 72 | 1014.6 |
| 20260505185054 | 11 | 315 | 3.2 | 11.3 | 0.00 | 0.03 | 0.03 | 72 | 1014.5 |
| 20260505184606 | 11 | 306 | 3.2 | 11.3 | 0.00 | 0.03 | 0.03 | 71 | 1014.5 |
| 20260505184054 | 11 | 310 | 1.6 | 11.3 | 0.00 | 0.03 | 0.03 | 71 | 1014.5 |
| 20260505183554 | 11 | 288 | 3.2 | 12.9 | 0.00 | 0.03 | 0.03 | 70 | 1014.4 |
| 20260505183055 | 11 | 285 | 3.2 | 11.3 | 0.00 | 0.03 | 0.03 | 70 | 1014.4 |
| 20260505182656 | 11 | 325 | 4.8 | 12.9 | 0.00 | 0.03 | 0.03 | 69 | 1014.4 |
| 20260505182056 | 11 | 304 | 3.2 | 12.9 | 0.00 | 0.03 | 0.03 | 69 | 1014.4 |
| 20260505181553 | 11 | 337 | 4.8 | 12.9 | 0.00 | 0.03 | 0.03 | 68 | 1014.4 |
| 20260505181055 | 11 | 309 | 1.6 | 16.1 | 0.00 | 0.03 | 0.03 | 68 | 1014.4 |
| 20260505180552 | 11 | 290 | 6.4 | 19.3 | 0.00 | 0.03 | 0.03 | 67 | 1014.4 |
| 20260505180054 | 12 | 300 | 6.4 | 19.3 | 0.00 | 0.03 | 0.03 | 66 | 1014.4 |
| 20260505175552 | 12 | 317 | 3.2 | 14.5 | 0.00 | 0.03 | 0.03 | 67 | 1014.4 |
| 20260505175052 | 12 | 298 | 6.4 | 14.5 | 0.00 | 0.03 | 0.03 | 66 | 1014.4 |
| 20260505174553 | 12 | 313 | 1.6 | 8.0 | 0.00 | 0.03 | 0.03 | 68 | 1014.4 |
| 20260505174053 | 12 | 300 | 3.2 | 11.3 | 0.00 | 0.03 | 0.03 | 67 | 1014.4 |
| 20260505173552 | 12 | 324 | 3.2 | 11.3 | 0.00 | 0.03 | 0.03 | 66 | 1014.4 |
| 20260505173054 | 12 | 317 | 1.6 | 9.7 | 0.00 | 0.03 | 0.03 | 67 | 1014.4 |
| 20260505172551 | 12 | 308 | 1.6 | 9.7 | 0.00 | 0.03 | 0.03 | 65 | 1014.4 |
| 20260505172052 | 12 | 310 | 1.6 | 11.3 | 0.00 | 0.03 | 0.03 | 66 | 1014.4 |
| 20260505171550 | 12 | 295 | 3.2 | 11.3 | 0.00 | 0.03 | 0.03 | 65 | 1014.4 |
| 20260505171055 | 12 | 298 | 1.6 | 8.0 | 0.00 | 0.03 | 0.03 | 65 | 1014.5 |
| 20260505170554 | 12 | 301 | 1.6 | 8.0 | 0.00 | 0.03 | 0.03 | 65 | 1014.5 |
| 20260505170057 | 12 | 313 | 3.2 | 11.3 | 0.00 | 0.03 | 0.03 | 64 | 1014.5 |
| 20260505165549 | 12 | 318 | 1.6 | 11.3 | 0.00 | 0.03 | 0.03 | 65 | 1014.5 |
| 20260505165048 | 12 | 311 | 1.6 | 8.0 | 0.00 | 0.03 | 0.03 | 65 | 1014.5 |
| 20260505164548 | 12 | 306 | 3.2 | 8.0 | 0.00 | 0.03 | 0.03 | 64 | 1014.6 |
| 20260505164048 | 12 | 320 | 3.2 | 8.0 | 0.00 | 0.03 | 0.03 | 66 | 1014.6 |
| 20260505163550 | 12 | 314 | 1.6 | 8.0 | 0.00 | 0.03 | 0.03 | 64 | 1014.6 |
| 20260505163050 | 12 | 288 | 1.6 | 6.4 | 0.00 | 0.03 | 0.03 | 66 | 1014.6 |
| 20260505162547 | 12 | 300 | 1.6 | 6.4 | 0.00 | 0.03 | 0.03 | 65 | 1014.6 |
| 20260505162048 | 12 | 300 | 1.6 | 6.4 | 0.00 | 0.03 | 0.03 | 64 | 1014.6 |
| 20260505161547 | 12 | 317 | 1.6 | 6.4 | 0.00 | 0.03 | 0.03 | 66 | 1014.6 |
| 20260505161049 | 12 | 319 | 1.6 | 6.4 | 0.00 | 0.03 | 0.03 | 66 | 1014.7 |
| 20260505160550 | 12 | 342 | 0.0 | 4.8 | 0.00 | 0.03 | 0.03 | 67 | 1014.7 |
| 20260505153053 | 11 | 342 | 1.6 | 6.4 | 0.00 | 0.03 | 0.03 | 68 | 1014.6 |
| 20260505152544 | 11 | 315 | 1.6 | 6.4 | 0.00 | 0.03 | 0.03 | 68 | 1014.7 |
| 20260505152048 | 11 | 314 | 1.6 | 6.4 | 0.00 | 0.03 | 0.03 | 69 | 1014.7 |
| 20260505151544 | 11 | 313 | 1.6 | 8.0 | 0.00 | 0.03 | 0.03 | 68 | 1014.7 |
| 20260505151044 | 11 | 294 | 1.6 | 8.0 | 0.00 | 0.03 | 0.03 | 69 | 1014.7 |
| 20260505150546 | 11 | 285 | 0.0 | 4.8 | 0.00 | 0.03 | 0.03 | 69 | 1014.7 |
| 20260505140542 | 12 | 302 | 6.4 | 12.9 | 0.00 | 0.03 | 0.03 | 66 | 1014.8 |
| 20260505125039 | 12 | 306 | 8.0 | 17.7 | 0.00 | 0.03 | 0.03 | 63 | 1014.8 |
| 20260505124539 | 12 | 309 | 6.4 | 16.1 | 0.00 | 0.03 | 0.03 | 64 | 1014.8 |
| 20260505124039 | 12 | 287 | 8.0 | 17.7 | 0.00 | 0.03 | 0.03 | 64 | 1014.8 |
| 20260505123538 | 12 | 279 | 6.4 | 14.5 | 0.00 | 0.03 | 0.03 | 65 | 1014.8 |
| 20260505123103 | 12 | 302 | 6.4 | 14.5 | 0.00 | 0.03 | 0.03 | 64 | 1014.7 |
| 20260505122538 | 13 | 291 | 4.8 | 14.5 | 0.00 | 0.03 | 0.03 | 64 | 1014.8 |
| 20260505122037 | 12 | 284 | 4.8 | 14.5 | 0.00 | 0.03 | 0.03 | 62 | 1014.7 |
| 20260505121539 | 12 | 290 | 4.8 | 16.1 | 0.00 | 0.03 | 0.03 | 64 | 1014.8 |
| 20260505121038 | 12 | 321 | 6.4 | 16.1 | 0.00 | 0.03 | 0.03 | 64 | 1014.8 |
| 20260505120536 | 12 | 292 | 6.4 | 14.5 | 0.00 | 0.03 | 0.03 | 66 | 1014.9 |
| 20260505120046 | 12 | 310 | 3.2 | 14.5 | 0.00 | 0.03 | 0.03 | 66 | 1014.9 |
| 20260505115535 | 12 | 309 | 6.4 | 14.5 | 0.00 | 0.03 | 0.03 | 66 | 1014.9 |
| 20260505115034 | 12 | 306 | 4.8 | 12.9 | 0.00 | 0.03 | 0.03 | 67 | 1014.8 |
| 20260505114546 | 12 | 304 | 3.2 | 17.7 | 0.00 | 0.03 | 0.03 | 67 | 1014.9 |
| 20260505114034 | 11 | 306 | 6.4 | 19.3 | 0.00 | 0.03 | 0.03 | 66 | 1014.9 |
| 20260505113534 | 12 | 281 | 6.4 | 16.1 | 0.00 | 0.03 | 0.03 | 67 | 1014.9 |
| 20260505113034 | 12 | 292 | 6.4 | 16.1 | 0.00 | 0.03 | 0.03 | 66 | 1015.0 |
| 20260505112535 | 12 | 300 | 6.4 | 14.5 | 0.00 | 0.03 | 0.03 | 64 | 1015.0 |
| 20260505112035 | 12 | 293 | 4.8 | 14.5 | 0.00 | 0.03 | 0.03 | 63 | 1015.0 |
| 20260505111533 | 12 | 280 | 4.8 | 17.7 | 0.00 | 0.03 | 0.03 | 63 | 1014.9 |
| 20260505111033 | 12 | 292 | 1.6 | 17.7 | 0.00 | 0.03 | 0.03 | 62 | 1014.9 |
| 20260505110532 | 12 | 309 | 4.8 | 14.5 | 0.00 | 0.03 | 0.03 | 62 | 1014.9 |
| 20260505102025 | 11 | 291 | 4.8 | 12.9 | 0.00 | 0.03 | 0.03 | 68 | 1015.3 |
| 20260505101525 | 11 | 306 | 1.6 | 8.0 | 0.00 | 0.03 | 0.03 | 70 | 1015.3 |
| 20260505101025 | 11 | 285 | 1.6 | 9.7 | 0.00 | 0.03 | 0.03 | 68 | 1015.3 |
| 20260505100527 | 11 | 315 | 4.8 | 14.5 | 0.00 | 0.03 | 0.03 | 67 | 1015.3 |
| 20260505100031 | 11 | 296 | 3.2 | 14.5 | 0.00 | 0.03 | 0.03 | 67 | 1015.3 |
| 20260505095523 | 12 | 292 | 1.6 | 9.7 | 0.00 | 0.03 | 0.03 | 66 | 1015.3 |
| 20260505095022 | 12 | 240 | 3.2 | 8.0 | 0.00 | 0.03 | 0.03 | 66 | 1015.2 |
| 20260505094521 | 11 | 49 | 1.6 | 11.3 | 0.00 | 0.03 | 0.03 | 65 | 1015.3 |
| 20260505094021 | 11 | 253 | 3.2 | 11.3 | 0.00 | 0.03 | 0.03 | 65 | 1015.3 |
| 20260505093520 | 11 | 292 | 1.6 | 12.9 | 0.00 | 0.03 | 0.03 | 66 | 1015.3 |
| 20260505093019 | 11 | 288 | 1.6 | 12.9 | 0.00 | 0.03 | 0.03 | 66 | 1015.3 |
| 20260505092519 | 11 | 292 | 1.6 | 12.9 | 0.00 | 0.03 | 0.03 | 68 | 1015.4 |
| 20260505092019 | 11 | 290 | 3.2 | 14.5 | 0.00 | 0.03 | 0.03 | 68 | 1015.3 |
| 20260505091527 | 11 | 300 | 0.0 | 14.5 | 0.00 | 0.03 | 0.03 | 71 | 1015.3 |
| 20260505091017 | 11 | 355 | 4.8 | 12.9 | 0.00 | 0.03 | 0.03 | 72 | 1015.3 |
| 20260505090518 | 11 | 313 | 4.8 | 12.9 | 0.00 | 0.03 | 0.03 | 70 | 1015.4 |
| 20260505090116 | 11 | 291 | 6.4 | 11.3 | 0.00 | 0.03 | 0.03 | 70 | 1015.3 |
| 20260505085516 | 11 | 290 | 0.0 | 9.7 | 0.00 | 0.03 | 0.03 | 71 | 1015.3 |
| 20260505085016 | 11 | 302 | 3.2 | 9.7 | 0.00 | 0.03 | 0.03 | 71 | 1015.3 |
| 20260505084519 | 11 | 305 | 3.2 | 14.5 | 0.00 | 0.03 | 0.03 | 74 | 1015.3 |
| 20260505084015 | 11 | 297 | 3.2 | 14.5 | 0.00 | 0.03 | 0.03 | 72 | 1015.4 |
| 20260505083517 | 11 | 286 | 4.8 | 16.1 | 0.00 | 0.03 | 0.03 | 72 | 1015.4 |
| 20260505083015 | 11 | 333 | 4.8 | 16.1 | 0.00 | 0.03 | 0.03 | 72 | 1015.4 |
| 20260505082517 | 11 | 288 | 4.8 | 14.5 | 0.00 | 0.03 | 0.03 | 72 | 1015.4 |
| 20260505082015 | 11 | 328 | 4.8 | 14.5 | 0.00 | 0.03 | 0.03 | 72 | 1015.4 |
| 20260505081514 | 11 | 273 | 1.6 | 11.3 | 0.00 | 0.03 | 0.03 | 69 | 1015.3 |
| 20260505081011 | 11 | 259 | 3.2 | 12.9 | 0.00 | 0.03 | 0.03 | 69 | 1015.3 |
| 20260505080511 | 11 | 300 | 3.2 | 12.9 | 0.00 | 0.03 | 0.03 | 70 | 1015.3 |
| 20260505080010 | 11 | 289 | 0.0 | 11.3 | 0.00 | 0.03 | 0.03 | 73 | 1015.3 |
| 20260505075509 | 11 | 171 | 1.6 | 11.3 | 0.00 | 0.03 | 0.03 | 76 | 1015.3 |
| 20260505075007 | 10 | 292 | 3.2 | 11.3 | 0.00 | 0.03 | 0.03 | 76 | 1015.3 |
| 20260505074506 | 10 | 274 | 0.0 | 6.4 | 0.00 | 0.03 | 0.03 | 79 | 1015.3 |
| 20260505074005 | 10 | 279 | 0.0 | 6.4 | 0.00 | 0.03 | 0.03 | 81 | 1015.4 |
| 20260505073504 | 9 | 246 | 0.0 | 8.0 | 0.00 | 0.03 | 0.03 | 82 | 1015.4 |
| 20260505073002 | 9 | 299 | 1.6 | 6.4 | 0.00 | 0.03 | 0.03 | 84 | 1015.3 |
| 20260505072501 | 8 | 311 | 0.0 | 6.4 | 0.00 | 0.03 | 0.03 | 86 | 1015.3 |
| 20260505072059 | 8 | 289 | 1.6 | 6.4 | 0.00 | 0.03 | 0.03 | 86 | 1015.3 |
| 20260505071559 | 8 | 42 | 0.0 | 6.4 | 0.00 | 0.03 | 0.03 | 88 | 1015.4 |
| 20260505071057 | 8 | 322 | 0.0 | 4.8 | 0.00 | 0.03 | 0.03 | 90 | 1015.4 |
| 20260505070556 | 7 | 322 | 0.0 | 4.8 | 0.00 | 0.03 | 0.03 | 90 | 1015.4 |
| 20260505070057 | 7 | 322 | 0.0 | 4.8 | 0.00 | 0.03 | 0.03 | 90 | 1015.5 |
| 20260505065555 | 7 | 326 | 0.0 | 4.8 | 0.00 | 0.03 | 0.03 | 91 | 1015.4 |
| 20260505065054 | 7 | 327 | 0.0 | 6.4 | 0.00 | 0.03 | 0.03 | 92 | 1015.5 |
| 20260505064555 | 7 | 61 | 0.0 | 6.4 | 0.00 | 0.03 | 0.03 | 93 | 1015.5 |
| 20260505064054 | 7 | 316 | 0.0 | 3.2 | 0.00 | 0.03 | 0.03 | 94 | 1015.6 |
| 20260505063554 | 7 | 316 | 0.0 | 4.8 | 0.00 | 0.03 | 0.03 | 94 | 1015.6 |
| 20260505063059 | 6 | 316 | 0.0 | 4.8 | 0.00 | 0.03 | 0.03 | 94 | 1015.6 |
| 20260505062553 | 6 | 316 | 0.0 | 0.0 | 0.03 | 0.03 | 0.03 | 95 | 1015.6 |
| 20260505062052 | 6 | 316 | 0.0 | 0.0 | 0.03 | 0.03 | 0.03 | 95 | 1015.7 |
| 20260505061555 | 6 | 316 | 0.0 | 0.0 | 0.03 | 0.03 | 0.03 | 95 | 1015.6 |
| 20260505061051 | 6 | 316 | 0.0 | 0.0 | 0.03 | 0.03 | 0.03 | 95 | 1015.7 |
| 20260505060550 | 6 | 316 | 0.0 | 0.0 | 0.03 | 0.03 | 0.03 | 95 | 1015.7 |
| 20260505060050 | 5 | 316 | 0.0 | 0.0 | 0.03 | 0.03 | 0.03 | 95 | 1015.7 |
| 20260505055548 | 5 | 316 | 0.0 | 0.0 | 0.03 | 0.03 | 0.03 | 95 | 1015.7 |
| 20260505055050 | 5 | 316 | 0.0 | 0.0 | 0.03 | 0.03 | 0.03 | 95 | 1015.7 |
| 20260505054546 | 4 | 316 | 0.0 | 0.0 | 0.03 | 0.03 | 0.03 | 94 | 1015.6 |
| 20260505054045 | 4 | 316 | 0.0 | 0.0 | 0.03 | 0.03 | 0.03 | 94 | 1015.6 |
| 20260505053548 | 4 | 316 | 0.0 | 0.0 | 0.03 | 0.03 | 0.03 | 94 | 1015.7 |
| 20260505053045 | 4 | 316 | 0.0 | 0.0 | 0.03 | 0.03 | 0.03 | 94 | 1015.6 |
| 20260505052543 | 4 | 316 | 0.0 | 0.0 | 0.00 | 0.00 | 0.00 | 94 | 1015.6 |
| 20260505052045 | 4 | 316 | 0.0 | 0.0 | 0.00 | 0.00 | 0.00 | 94 | 1015.6 |
| 20260505051542 | 4 | 316 | 0.0 | 0.0 | 0.00 | 0.00 | 0.00 | 94 | 1015.5 |
| 20260505051042 | 3 | 316 | 0.0 | 0.0 | 0.00 | 0.00 | 0.00 | 94 | 1015.5 |
| 20260505050541 | 3 | 316 | 0.0 | 0.0 | 0.00 | 0.00 | 0.00 | 93 | 1015.5 |
| 20260505050118 | 3 | 316 | 0.0 | 0.0 | 0.00 | 0.00 | 0.00 | 93 | 1015.5 |
| 20260505041549 | 4 | 316 | 0.0 | 0.0 | 0.00 | 0.00 | 0.00 | 92 | 1015.4 |
| 20260505041036 | 4 | 316 | 0.0 | 0.0 | 0.00 | 0.00 | 0.00 | 93 | 1015.3 |
| 20260505040539 | 4 | 316 | 0.0 | 0.0 | 0.00 | 0.00 | 0.00 | 93 | 1015.3 |
| 20260505040046 | 4 | 316 | 0.0 | 0.0 | 0.00 | 0.00 | 0.00 | 92 | 1015.2 |
| 20260505035535 | 4 | 316 | 0.0 | 0.0 | 0.00 | 0.00 | 0.00 | 93 | 1015.2 |
| 20260505035034 | 4 | 316 | 0.0 | 0.0 | 0.00 | 0.00 | 0.00 | 92 | 1015.2 |
| 20260505034534 | 4 | 316 | 0.0 | 0.0 | 0.00 | 0.00 | 0.00 | 92 | 1015.2 |
| 20260505034034 | 4 | 316 | 0.0 | 0.0 | 0.00 | 0.00 | 0.00 | 92 | 1015.2 |
| 20260505033536 | 4 | 316 | 0.0 | 0.0 | 0.00 | 0.00 | 0.00 | 92 | 1015.2 |
| 20260505033036 | 4 | 316 | 0.0 | 0.0 | 0.00 | 0.00 | 0.00 | 92 | 1015.2 |
| 20260505032535 | 4 | 316 | 0.0 | 0.0 | 0.00 | 0.00 | 0.00 | 92 | 1015.2 |